Regional Weather Roundup
Issued by NWS Wakefield, VA

Home | Current Version | Previous Version | Graphics & Text | Print | Product List | Glossary On
Versions: 1 2 3 4 5 6 7 8 9 10 11 12 13 14 15 16 17 18 19 20 21 22 23 24 25 26 27
000
ASUS41 KAKQ 180610
RWRAKQ

REGIONAL WEATHER ROUNDUP
NATIONAL WEATHER SERVICE WAKEFIELD VA
200 AM EDT FRI APR 18 2014

Note: "fair" indicates few or no clouds below 12,000 feet with no
significant weather and/or obstructions to visibility. * = Denotes
station may not report precipitation (e.g., rain,snow,etc.),
thunder or fog.

VAZ042-051-052>054-056-180700-
NORTHERN VIRGINIA

CITY           SKY/WX    TMP DP  RH WIND       PRES   REMARKS
WASH NATIONAL  FAIR      41  31  67 E7        30.55F
DULLES         FAIR      36  30  79 E3        30.54F
FORT BELVOIR   FAIR      37  31  79 CALM      30.55F
QUANTICO       FAIR      41  33  73 E12       30.55F
FREDERICKSBRG* FAIR      39  34  81 E7        30.53F
STAFFORD*      FAIR      39  34  81 CALM      30.57F
WARRENTON      FAIR      34  34 100 CALM      30.52F
CULPEPER*      FAIR      37  34  87 CALM      30.54F
MANASSAS*      FAIR      39  34  81 CALM      30.54F
LEESBURG*      FAIR      37  34  87 CALM      30.54F
WINCHESTER     FAIR      37  32  81 SE6       30.49F
$$

VAZ048-049-060>072-079>083-180700-
CENTRAL AND SOUTH CENTRAL VIRGINIA...AND NORTH CENTRAL NORTH CAROLINA

CITY           SKY/WX    TMP DP  RH WIND       PRES   REMARKS
RICHMOND       FAIR      39  33  79 NE5       30.51F
CHESTERFIELD*  NOT AVBL
HANOVER        FAIR      36  33  89 CALM      30.53F
TAPPAHANNOCK*  FAIR      37  32  82 CALM      30.52F
CHARLOTTSVILLE FAIR      39  32  76 E5        30.50F
ORANGE*        FAIR      36  32  87 CALM      30.53F
LOUISA*        FAIR      34  32  93 NE3       30.50F
FARMVILLE*     FAIR      39  34  81 CALM      30.48F
SOUTH HILL*    FAIR      39  37  93 CALM      30.53F
ROANOKE RAPIDS CLOUDY    41  39  93 N5        30.47F
RALEIGH        MOCLDY    42  35  76 NE8       30.45F
$$

VAZ088>098-180700-
SOUTHEAST VIRGINIA

CITY           SKY/WX    TMP DP  RH WIND       PRES   REMARKS
NORFOLK        CLOUDY    44  37  76 NE13      30.48F
VIRGINIA BEACH CLOUDY    44  37  76 NE15      30.48F
NORFOLK NAVAL  CLOUDY    45  36  70 NE14      30.50F
WEST POINT*    MOCLDY    40  33  75 NE3       30.53F
NEWPORT NEWS   LGT RAIN  46  36  68 NE9       30.50F
LANGLEY AFB    CLOUDY    44  38  79 NE12      30.50F
FORT EUSTIS    CLOUDY    44  37  77 VRB3      30.48F
WILLIAMSBURG*  CLOUDY    45  37  76 E7        30.51F
FRANKLIN*      CLOUDY    45  37  76 NE9       30.49F
WAKEFIELD      CLOUDY    43  35  73 CALM      30.50F
$$

VAZ020-022-025-037-045-180700-
WESTERN AND SOUTHWEST VIRGINIA

CITY           SKY/WX    TMP DP  RH WIND       PRES   REMARKS
STAUNTON*      FAIR      36  30  78 CALM      30.46F
HOT SPRINGS VA FAIR      36  23  60 CALM      30.42F
LYNCHBURG      FAIR      44  33  65 NE6       30.48F
DANVILLE       FAIR      44  37  76 E8        30.46F
MARTINSVILLE   FAIR      35  32  91 CALM      30.46F
ROANOKE        FAIR      41  31  67 SE8       30.47F
BLACKSBURG     FAIR      36  30  80 CALM      30.44F
DUBLIN*        FAIR      34  27  77 CALM      30.43F
MARION*        FAIR      38  23  54 E3        30.42F
HILLSVILLE*    FAIR      41  18  38 E3        30.43F
RICHLANDS*     FAIR      49  21  32 SE13G20   30.34F
WISE*          FAIR      46  18  31 S9        30.33F
ABINGDON*      FAIR      47  22  37 E10       30.36F
$$

MDZ021>025-VAZ099-100-180700-
SOUTHERN MARYLAND AND THE DELMARVA PENINSULA

CITY           SKY/WX    TMP DP  RH WIND       PRES   REMARKS
PATUXENT RIVER CLOUDY    40  31  70 NE12      30.53F
BAY BRIDGE APT MOCLDY    39  30  70 E6        30.55F
LEONARDTOWN    CLOUDY    37  30  75 NE3       30.54F
DOVER          CLOUDY    40  34  79 NE6       30.52F
GEORGETOWN     CLOUDY    41  31  67 NE8       30.55F
EASTON         MOCLDY    41  34  74 E6        30.58F
CAMBRIDGE      MOCLDY    41  32  70 E7        30.54F
SALISBURY      CLOUDY    42  32  67 NE9       30.53F
OCEAN CITY     FAIR      40  32  73 NE8       30.52F
WALLOPS ISLAND FAIR      39  33  79 N8        30.52F
ACCOMACK*      FAIR      36  32  87 N5        30.51F
$$

NCZ012>017-030>032-180700-
EASTERN NORTH CAROLINA

CITY           SKY/WX    TMP DP  RH WIND       PRES   REMARKS
ELIZABETH CITY CLOUDY    46  40  79 NE17      30.45F
AHOSKIE*       FAIR      41  36  82 N5        30.48F
EDENTON*       CLOUDY    44  39  83 NE10G16   30.45F
CURRITUCK*     CLOUDY    46  39  79 N17G23    30.46F
KILL DEVIL HLS CLOUDY    46  43  91 N8G22     30.42F
MANTEO         CLOUDY    46  43  91 NE18G28   30.43F
CAPE HATTERAS  CLOUDY    50  48  93 NE10G24   30.38F
GOLDSBORO      FAIR      44  41  89 NE6       30.42F
WASHINGTON     FAIR      43  38  84 NE6       30.45F
GREENVILLE     FAIR      41  37  87 NE7       30.44F
NEW BERN       CLOUDY    46  41  82 N8        30.42F
WILMINGTON     FAIR      48  40  73 NE9       30.38F
$$

VAZ048-180700-
ELSEWHERE

CITY           SKY/WX    TMP DP  RH WIND       PRES   REMARKS
HARRISBURG PA  FAIR      38  28  67 SE8       30.55F
BALTIMORE      MOCLDY    38  30  73 E7        30.55F
ANNAPOLIS      CLOUDY    41  32  70 NE7       30.55F
ANDREWS AFB    CLOUDY    37  30  78 NE5       30.53F
WILMINGTON DE  CLOUDY    39  29  67 E8        30.59F
PHILADELPHIA   CLOUDY    40  27  59 E12       30.60F
WILDWOOD NJ*   CLOUDY    39  30  70 NE10      30.57F
ATLANTIC CITY  CLOUDY    39  32  76 NE7       30.57F
HENDERSON NC   FAIR      40  36  86 NE9       30.46F
GREENSBORO     FAIR      44  37  76 E7        30.41F
ROCKY MOUNT      N/A    N/A N/A N/A MISG      30.46F
FAYETTEVILLE   FAIR      48  41  76 NE6       30.40F
CHARLOTTE      FAIR      51  33  50 E7        30.40F
$$

VAZ100-180700-
MARINE

STATION/POSITION TIME  TEMP    WIND        PRES    WAVE   SWELL
                       AIR SEA DIR/SP/G            HT/PER HT/PER
                 (UTC) (F)     (DEG/KT/KT) (MB)    (FT/S) (FT/S)
44066 TX TWR #4  0600   40 44   60/ 16/ 17 1033.5R  10/ 8   7/ 8
CAPE MAY NJ      0600   40 52   70/  4/  7 1034.5F
LEWES DE         0600   41 48   90/ 10/ 13 1034.0F
15NM E FENWICK I 0600   42 45              1033.6F   9/ 8
OCEAN-CITY-INLET 0600   41 46   30/  5/  7 1033.6S
WACHAPREAGUE VA  0600   38 53  350/  4/  6 1032.9F
THOMAS POINT MD  0600   40 52   50/ 10/ 13 1034.8F
GOOSES REEF MD   0500   41     110/ 10/ 12 1036.0F
COVE POINT MD    0600   40      90/  6/  8 1034.1F
SOLOMONS ISLAND  0600      52                N/A
BISHOPS HEAD MD  0600   40 53   60/  8/ 10 1033.7F
PINEY POINT MD   0600           80/  7/  9   N/A
POTOMAC MD       0600   42      70/ 10/ 12 1033.3F
CAMBRIDGE MD     0600   41 55   40/  9/ 13 1033.9F
LEWISETTA VA     0600   42 53   70/ 10/ 13 1033.3F
RAPPAHANNOCK LGT 0600           30/ 17/ 19 1033.6F
YORK RVR RNG VA  0600   44      70/ 14/ 16 1032.3F
YORKTOWN VA      0600   44 55   50/ 15/ 18 1032.8F
JAMESTOWN VA     0600   43      90/  6/ 12   N/A
DOMINION TERM VA 0600   44      50/  8/ 12 1032.8F
KIPTOPEKE VA     0600      52   60/  8/ 12   N/A
CHES BAY BRIDGE  0600   44 49   30/ 16/ 19 1032.6F
CAPE HENRY VA    0600   43      40/ 16/ 19   N/A
CHESAPEAKE LGHT  0500   44      40/ 18/ 21 1033.5F
WILLOUBY STN VA  0600   43      50/ 13/ 16 1031.6F
S CRANEY ISL VA  0600           10/  8/ 13 1032.4F
CAPE HENRY BUOY  0600      47                N/A     7/ 9   3/11
1ST LANDING BUOY 0600      46                N/A     6/10   5/10
64NM E OF VA BCH 0600   50 53   10/ 19/ 21 1029.9F  10/ 9   8/ 9
DUCK PIER NC     0600   46 51   10/ 19/ 21 1029.6F
44100 DUCK FRF   0600      48                N/A     8/11   3/11
44056 DUCK FRF   0600      51                N/A     7/11   3/11
OREGON INLET NC  0600   46 51  360/ 18/ 21 1029.8F
HATTERAS NC      0600   51 56   10/ 12/ 19 1028.8F
CAPE LOOKOUT NC  0500   50      10/ 19/ 24 1029.2F
FRYING PAN SHLS  0600   58 64   50/ 21/ 25 1026.2F   8/ 7   3/ 9
$$



USA.gov is the U.S. government's official web portal to all federal, state and local government web resources and services.